Time,TemperatureF,DewpointF,PressureIn,WindDirection,WindDirectionDegrees,WindSpeedMPH,WindSpeedGustMPH,Humidity,HourlyPrecipIn,Conditions,Clouds,dailyrainin,SoftwareType,DateUTC
2013-02-12 00:00:00,31.8,23.8,29.98,WNW,285,8.0,8.0,72,0.00,,---,0.00,VWS V14.01,2013-02-12 06:00:00,
2013-02-12 00:05:00,31.8,24.1,29.97,WNW,287,7.0,12.0,73,0.00,,---,0.00,VWS V14.01,2013-02-12 06:05:00,
2013-02-12 00:10:00,31.8,23.8,29.98,WNW,284,6.0,13.0,72,0.00,,---,0.00,VWS V14.01,2013-02-12 06:10:00,
2013-02-12 00:15:00,31.8,23.8,29.98,WSW,243,4.0,20.0,72,0.00,,---,0.00,VWS V14.01,2013-02-12 06:15:00,
2013-02-12 00:20:00,31.8,23.8,29.98,NW,309,7.0,20.0,72,0.00,,---,0.00,VWS V14.01,2013-02-12 06:20:00,
2013-02-12 00:25:00,31.8,23.8,29.98,West,259,11.0,20.0,72,0.00,,---,0.00,VWS V14.01,2013-02-12 06:25:00,
2013-02-12 00:30:00,31.8,23.8,29.98,WSW,252,4.0,12.0,72,0.00,,---,0.00,VWS V14.01,2013-02-12 06:30:00,
2013-02-12 00:35:00,31.8,23.8,29.98,West,263,2.0,12.0,72,0.00,,---,0.00,VWS V14.01,2013-02-12 06:35:00,
2013-02-12 00:40:00,31.7,24.0,29.98,West,277,5.0,12.0,73,0.00,,---,0.00,VWS V14.01,2013-02-12 06:40:00,
2013-02-12 00:45:00,31.7,24.0,29.98,WNW,287,4.0,17.0,73,0.00,,---,0.00,VWS V14.01,2013-02-12 06:45:00,
2013-02-12 00:50:00,31.7,24.0,29.99,West,270,5.0,17.0,73,0.00,,---,0.00,VWS V14.01,2013-02-12 06:50:00,
2013-02-12 00:55:00,31.7,24.4,29.99,WSW,239,3.0,17.0,74,0.00,,---,0.00,VWS V14.01,2013-02-12 06:55:00,
2013-02-12 01:00:00,31.6,24.0,29.99,WSW,250,6.0,10.0,73,0.00,,---,0.00,VWS V14.01,2013-02-12 07:00:00,
2013-02-12 01:05:00,31.6,24.3,29.99,West,260,5.0,11.0,74,0.00,,---,0.00,VWS V14.01,2013-02-12 07:05:00,
2013-02-12 01:10:00,31.6,24.3,29.99,WNW,288,5.0,11.0,74,0.00,,---,0.00,VWS V14.01,2013-02-12 07:10:00,
2013-02-12 01:15:00,31.6,24.6,30.00,WSW,252,2.0,11.0,75,0.00,,---,0.00,VWS V14.01,2013-02-12 07:15:00,
2013-02-12 01:20:00,31.5,24.5,30.00,West,263,3.0,11.0,75,0.00,,---,0.00,VWS V14.01,2013-02-12 07:20:00,
2013-02-12 01:25:00,31.5,24.5,30.00,WNW,285,5.0,11.0,75,0.00,,---,0.00,VWS V14.01,2013-02-12 07:25:00,
2013-02-12 01:30:00,31.4,24.4,30.00,West,266,4.0,10.0,75,0.00,,---,0.00,VWS V14.01,2013-02-12 07:30:00,
2013-02-12 01:35:00,31.4,24.4,30.00,NW,307,7.0,12.0,75,0.00,,---,0.00,VWS V14.01,2013-02-12 07:35:00,
2013-02-12 01:40:00,31.4,24.4,30.01,West,263,2.0,12.0,75,0.00,,---,0.00,VWS V14.01,2013-02-12 07:40:00,
2013-02-12 01:45:00,31.4,24.1,30.01,West,276,5.0,13.0,74,0.00,,---,0.00,VWS V14.01,2013-02-12 07:45:00,
2013-02-12 01:50:00,31.3,24.0,30.01,West,280,7.0,14.0,74,0.00,,---,0.00,VWS V14.01,2013-02-12 07:50:00,
2013-02-12 01:55:00,31.3,24.0,30.01,West,277,5.0,14.0,74,0.00,,---,0.00,VWS V14.01,2013-02-12 07:55:00,
2013-02-12 02:00:00,31.3,24.0,30.01,West,278,4.0,8.0,74,0.00,,---,0.00,VWS V14.01,2013-02-12 08:00:00,
2013-02-12 02:05:00,31.2,23.9,30.01,West,274,3.0,8.0,74,0.00,,---,0.00,VWS V14.01,2013-02-12 08:05:00,
2013-02-12 02:10:00,31.2,23.9,30.01,West,278,3.0,9.0,74,0.00,,---,0.00,VWS V14.01,2013-02-12 08:10:00,
2013-02-12 02:15:00,31.2,23.9,30.02,West,261,4.0,11.0,74,0.00,,---,0.00,VWS V14.01,2013-02-12 08:15:00,
2013-02-12 02:20:00,31.1,23.8,30.01,West,264,4.0,13.0,74,0.00,,---,0.00,VWS V14.01,2013-02-12 08:20:00,
2013-02-12 02:25:00,31.1,23.8,30.02,WNW,294,6.0,14.0,74,0.00,,---,0.00,VWS V14.01,2013-02-12 08:25:00,
2013-02-12 02:30:00,31.0,24.0,30.02,West,270,2.0,10.0,75,0.00,,---,0.00,VWS V14.01,2013-02-12 08:30:00,
2013-02-12 02:35:00,31.0,24.0,30.02,WSW,256,4.0,10.0,75,0.00,,---,0.00,VWS V14.01,2013-02-12 08:35:00,
2013-02-12 02:40:00,30.9,23.9,30.02,West,280,4.0,10.0,75,0.00,,---,0.00,VWS V14.01,2013-02-12 08:40:00,
2013-02-12 02:45:00,30.8,23.8,30.03,West,259,3.0,10.0,75,0.00,,---,0.00,VWS V14.01,2013-02-12 08:45:00,
2013-02-12 02:50:00,30.8,24.1,30.03,West,281,4.0,10.0,76,0.00,,---,0.00,VWS V14.01,2013-02-12 08:50:00,
2013-02-12 02:55:00,30.8,23.8,30.03,WSW,246,3.0,12.0,75,0.00,,---,0.00,VWS V14.01,2013-02-12 08:55:00,
2013-02-12 03:00:00,30.7,24.0,30.03,WNW,285,5.0,10.0,76,0.00,,---,0.00,VWS V14.01,2013-02-12 09:00:00,
2013-02-12 03:05:00,30.8,23.8,30.03,WNW,285,6.0,13.0,75,0.00,,---,0.00,VWS V14.01,2013-02-12 09:05:00,
2013-02-12 03:10:00,30.8,23.8,30.03,SW,236,7.0,13.0,75,0.00,,---,0.00,VWS V14.01,2013-02-12 09:10:00,
2013-02-12 03:15:00,30.8,24.1,30.03,WSW,242,2.0,13.0,76,0.00,,---,0.00,VWS V14.01,2013-02-12 09:15:00,
2013-02-12 03:20:00,30.8,24.1,30.03,West,273,3.0,13.0,76,0.00,,---,0.00,VWS V14.01,2013-02-12 09:20:00,
2013-02-12 03:25:00,30.8,24.1,30.03,West,270,4.0,13.0,76,0.00,,---,0.00,VWS V14.01,2013-02-12 09:25:00,
2013-02-12 03:30:00,30.8,24.1,30.03,West,275,6.0,8.0,76,0.00,,---,0.00,VWS V14.01,2013-02-12 09:30:00,
2013-02-12 03:35:00,30.8,24.1,30.03,NW,307,8.0,10.0,76,0.00,,---,0.00,VWS V14.01,2013-02-12 09:35:00,
2013-02-12 03:40:00,30.8,24.1,30.03,WNW,285,6.0,14.0,76,0.00,,---,0.00,VWS V14.01,2013-02-12 09:40:00,
2013-02-12 03:45:00,30.8,24.1,30.04,WSW,244,3.0,14.0,76,0.00,,---,0.00,VWS V14.01,2013-02-12 09:45:00,
2013-02-12 03:50:00,30.8,24.1,30.04,WSW,248,7.0,14.0,76,0.00,,---,0.00,VWS V14.01,2013-02-12 09:50:00,
2013-02-12 03:55:00,30.8,24.1,30.04,West,270,3.0,14.0,76,0.00,,---,0.00,VWS V14.01,2013-02-12 09:55:00,
2013-02-12 04:00:00,30.8,24.1,30.04,West,279,5.0,10.0,76,0.00,,---,0.00,VWS V14.01,2013-02-12 10:00:00,
2013-02-12 04:05:00,30.8,24.1,30.04,West,278,8.0,12.0,76,0.00,,---,0.00,VWS V14.01,2013-02-12 10:05:00,
2013-02-12 04:10:00,30.8,24.1,30.04,WSW,239,5.0,12.0,76,0.00,,---,0.00,VWS V14.01,2013-02-12 10:10:00,
2013-02-12 04:15:00,30.8,24.1,30.05,WSW,239,4.0,12.0,76,0.00,,---,0.00,VWS V14.01,2013-02-12 10:15:00,
2013-02-12 04:20:00,30.8,24.1,30.05,NW,307,9.0,12.0,76,0.00,,---,0.00,VWS V14.01,2013-02-12 10:20:00,
2013-02-12 04:25:00,30.8,24.1,30.05,North,9,8.0,12.0,76,0.00,,---,0.00,VWS V14.01,2013-02-12 10:25:00,
2013-02-12 04:30:00,30.9,23.9,30.05,WSW,242,12.0,12.0,75,0.00,,---,0.00,VWS V14.01,2013-02-12 10:30:00,
2013-02-12 04:35:00,30.9,23.9,30.06,WSW,253,10.0,13.0,75,0.00,,---,0.00,VWS V14.01,2013-02-12 10:35:00,
2013-02-12 04:40:00,30.9,23.9,30.06,WNW,285,8.0,14.0,75,0.00,,---,0.00,VWS V14.01,2013-02-12 10:40:00,
2013-02-12 04:45:00,30.9,23.9,30.05,West,270,4.0,14.0,75,0.00,,---,0.00,VWS V14.01,2013-02-12 10:45:00,
2013-02-12 04:50:00,30.9,23.9,30.05,WNW,285,8.0,14.0,75,0.00,,---,0.00,VWS V14.01,2013-02-12 10:50:00,
2013-02-12 04:55:00,30.9,23.9,30.05,West,274,5.0,14.0,75,0.00,,---,0.00,VWS V14.01,2013-02-12 10:55:00,
2013-02-12 05:00:00,30.9,23.9,30.05,WNW,290,5.0,12.0,75,0.00,,---,0.00,VWS V14.01,2013-02-12 11:00:00,
2013-02-12 05:05:00,30.9,23.9,30.05,WSW,252,3.0,12.0,75,0.00,,---,0.00,VWS V14.01,2013-02-12 11:05:00,
2013-02-12 05:10:00,30.8,24.1,30.05,WSW,257,3.0,12.0,76,0.00,,---,0.00,VWS V14.01,2013-02-12 11:10:00,
2013-02-12 05:15:00,30.8,24.1,30.06,WNW,283,4.0,12.0,76,0.00,,---,0.00,VWS V14.01,2013-02-12 11:15:00,
2013-02-12 05:20:00,30.8,24.5,30.06,WSW,243,2.0,12.0,77,0.00,,---,0.00,VWS V14.01,2013-02-12 11:20:00,
2013-02-12 05:25:00,30.8,24.5,30.06,West,274,6.0,12.0,77,0.00,,---,0.00,VWS V14.01,2013-02-12 11:25:00,
2013-02-12 05:30:00,30.8,24.5,30.07,WNW,294,2.0,8.0,77,0.00,,---,0.00,VWS V14.01,2013-02-12 11:30:00,
2013-02-12 05:35:00,30.7,24.4,30.07,West,281,2.0,16.0,77,0.00,,---,0.00,VWS V14.01,2013-02-12 11:35:00,
2013-02-12 05:40:00,30.7,24.4,30.07,SW,224,6.0,16.0,77,0.00,,---,0.00,VWS V14.01,2013-02-12 11:40:00,
2013-02-12 05:45:00,30.6,24.3,30.07,West,266,5.0,16.0,77,0.00,,---,0.00,VWS V14.01,2013-02-12 11:45:00,
2013-02-12 05:50:00,30.6,24.3,30.07,WNW,294,6.0,16.0,77,0.00,,---,0.00,VWS V14.01,2013-02-12 11:50:00,
2013-02-12 05:55:00,30.6,24.3,30.07,WNW,290,7.0,16.0,77,0.00,,---,0.00,VWS V14.01,2013-02-12 11:55:00,
2013-02-12 06:00:00,30.5,24.2,30.08,West,260,6.0,8.0,77,0.00,,---,0.00,VWS V14.01,2013-02-12 12:00:00,
2013-02-12 06:05:00,30.5,24.2,30.07,West,266,11.0,11.0,77,0.00,,---,0.00,VWS V14.01,2013-02-12 12:05:00,
2013-02-12 06:10:00,30.5,24.2,30.08,WSW,255,6.0,12.0,77,0.00,,---,0.00,VWS V14.01,2013-02-12 12:10:00,
2013-02-12 06:15:00,30.4,24.1,30.08,WSW,257,3.0,12.0,77,0.00,,---,0.00,VWS V14.01,2013-02-12 12:15:00,
2013-02-12 06:20:00,30.4,24.1,30.08,WNW,283,3.0,12.0,77,0.00,,---,0.00,VWS V14.01,2013-02-12 12:20:00,
2013-02-12 06:25:00,30.4,24.1,30.08,SW,222,3.0,12.0,77,0.00,,---,0.00,VWS V14.01,2013-02-12 12:25:00,
2013-02-12 06:30:00,30.4,24.1,30.08,WSW,257,4.0,9.0,77,0.00,,---,0.00,VWS V14.01,2013-02-12 12:30:00,
2013-02-12 06:35:00,30.4,24.1,30.08,WNW,290,5.0,13.0,77,0.00,,---,0.00,VWS V14.01,2013-02-12 12:35:00,
2013-02-12 06:40:00,30.3,24.0,30.08,West,278,11.0,13.0,77,0.00,,---,0.00,VWS V14.01,2013-02-12 12:40:00,
2013-02-12 06:45:00,30.3,24.0,30.09,WNW,283,6.0,14.0,77,0.00,,---,0.00,VWS V14.01,2013-02-12 12:45:00,
2013-02-12 06:50:00,30.3,24.0,30.09,WSW,242,6.0,14.0,77,0.00,,---,0.00,VWS V14.01,2013-02-12 12:50:00,
2013-02-12 06:55:00,30.3,24.0,30.09,West,269,2.0,14.0,77,0.00,,---,0.00,VWS V14.01,2013-02-12 12:55:00,
2013-02-12 07:00:00,30.2,23.9,30.09,West,274,6.0,11.0,77,0.00,,---,0.00,VWS V14.01,2013-02-12 13:00:00,
2013-02-12 07:05:00,30.2,23.9,30.09,SW,222,7.0,11.0,77,0.00,,---,0.00,VWS V14.01,2013-02-12 13:05:00,
2013-02-12 07:10:00,30.2,23.9,30.09,WSW,238,4.0,12.0,77,0.00,,---,0.00,VWS V14.01,2013-02-12 13:10:00,
2013-02-12 07:15:00,30.3,24.0,30.09,NW,316,4.0,12.0,77,0.00,,---,0.00,VWS V14.01,2013-02-12 13:15:00,
2013-02-12 07:20:00,30.3,24.0,30.09,West,281,3.0,12.0,77,0.00,,---,0.00,VWS V14.01,2013-02-12 13:20:00,
2013-02-12 07:25:00,30.3,24.0,30.10,West,265,7.0,12.0,77,0.00,,---,0.00,VWS V14.01,2013-02-12 13:25:00,
2013-02-12 07:30:00,30.3,24.0,30.10,WSW,255,4.0,7.0,77,0.00,,---,0.00,VWS V14.01,2013-02-12 13:30:00,
2013-02-12 07:35:00,30.3,24.3,30.10,West,269,7.0,12.0,78,0.00,,---,0.00,VWS V14.01,2013-02-12 13:35:00,
2013-02-12 07:40:00,30.3,24.3,30.10,WNW,291,4.0,12.0,78,0.00,,---,0.00,VWS V14.01,2013-02-12 13:40:00,
2013-02-12 07:45:00,30.3,24.3,30.09,WSW,243,1.0,12.0,78,0.00,,---,0.00,VWS V14.01,2013-02-12 13:45:00,
2013-02-12 07:50:00,30.3,24.6,30.10,West,263,11.0,12.0,79,0.00,,---,0.00,VWS V14.01,2013-02-12 13:50:00,
2013-02-12 07:55:00,30.2,24.2,30.10,West,259,4.0,12.0,78,0.00,,---,0.00,VWS V14.01,2013-02-12 13:55:00,
2013-02-12 08:00:00,30.2,24.2,30.11,WSW,245,4.0,8.0,78,0.00,,---,0.00,VWS V14.01,2013-02-12 14:00:00,
2013-02-12 08:05:00,30.2,24.2,30.10,West,277,6.0,8.0,78,0.00,,---,0.00,VWS V14.01,2013-02-12 14:05:00,
2013-02-12 08:10:00,30.2,24.5,30.11,West,272,5.0,8.0,79,0.00,,---,0.00,VWS V14.01,2013-02-12 14:10:00,
2013-02-12 08:15:00,30.2,24.2,30.11,WSW,253,5.0,8.0,78,0.00,,---,0.00,VWS V14.01,2013-02-12 14:15:00,
2013-02-12 08:20:00,30.3,24.3,30.11,West,261,3.0,8.0,78,0.00,,---,0.00,VWS V14.01,2013-02-12 14:20:00,
2013-02-12 08:25:00,30.3,24.0,30.10,West,274,2.0,8.0,77,0.00,,---,0.00,VWS V14.01,2013-02-12 14:25:00,
2013-02-12 08:30:00,30.4,24.4,30.11,WNW,291,4.0,6.0,78,0.00,,---,0.00,VWS V14.01,2013-02-12 14:30:00,
2013-02-12 08:35:00,30.4,24.1,30.11,West,264,3.0,8.0,77,0.00,,---,0.00,VWS V14.01,2013-02-12 14:35:00,
2013-02-12 08:40:00,30.5,24.2,30.11,SW,229,3.0,8.0,77,0.00,,---,0.00,VWS V14.01,2013-02-12 14:40:00,
2013-02-12 08:45:00,30.5,24.2,30.11,West,278,1.0,8.0,77,0.00,,---,0.00,VWS V14.01,2013-02-12 14:45:00,
2013-02-12 08:50:00,30.5,24.2,30.11,SW,236,3.0,9.0,77,0.00,,---,0.00,VWS V14.01,2013-02-12 14:50:00,
2013-02-12 08:55:00,30.5,24.2,30.11,West,264,3.0,9.0,77,0.00,,---,0.00,VWS V14.01,2013-02-12 14:55:00,
2013-02-12 09:00:00,30.5,24.2,30.11,West,276,2.0,5.0,77,0.00,,---,0.00,VWS V14.01,2013-02-12 15:00:00,
2013-02-12 09:05:00,30.6,24.3,30.12,West,259,5.0,8.0,77,0.00,,---,0.00,VWS V14.01,2013-02-12 15:05:00,
2013-02-12 09:10:00,30.6,24.3,30.12,WNW,297,2.0,10.0,77,0.00,,---,0.00,VWS V14.01,2013-02-12 15:10:00,
2013-02-12 09:15:00,30.7,24.4,30.11,West,264,6.0,10.0,77,0.00,,---,0.00,VWS V14.01,2013-02-12 15:15:00,
2013-02-12 09:20:00,30.8,24.1,30.11,WNW,290,7.0,10.0,76,0.00,,---,0.00,VWS V14.01,2013-02-12 15:20:00,
2013-02-12 09:25:00,30.9,23.9,30.12,WSW,257,6.0,10.0,75,0.00,,---,0.00,VWS V14.01,2013-02-12 15:25:00,
2013-02-12 09:30:00,31.0,24.0,30.11,West,280,5.0,6.0,75,0.00,,---,0.00,VWS V14.01,2013-02-12 15:30:00,
2013-02-12 09:35:00,31.0,24.0,30.11,WSW,256,2.0,7.0,75,0.00,,---,0.00,VWS V14.01,2013-02-12 15:35:00,
2013-02-12 09:40:00,31.1,24.1,30.11,West,271,4.0,11.0,75,0.00,,---,0.00,VWS V14.01,2013-02-12 15:40:00,
2013-02-12 09:45:00,31.1,24.1,30.11,West,265,5.0,11.0,75,0.00,,---,0.00,VWS V14.01,2013-02-12 15:45:00,
2013-02-12 09:50:00,31.2,24.5,30.11,West,269,6.0,11.0,76,0.00,,---,0.00,VWS V14.01,2013-02-12 15:50:00,
2013-02-12 09:55:00,31.2,24.2,30.11,WNW,293,6.0,11.0,75,0.00,,---,0.00,VWS V14.01,2013-02-12 15:55:00,
2013-02-12 10:00:00,31.2,24.5,30.11,WNW,293,2.0,4.0,76,0.00,,---,0.00,VWS V14.01,2013-02-12 16:00:00,
2013-02-12 10:05:00,31.3,24.6,30.12,West,275,3.0,8.0,76,0.00,,---,0.00,VWS V14.01,2013-02-12 16:05:00,
2013-02-12 10:10:00,31.1,24.4,30.11,WSW,250,2.0,8.0,76,0.00,,---,0.00,VWS V14.01,2013-02-12 16:10:00,
2013-02-12 10:15:00,31.3,24.9,30.10,SW,231,3.0,8.0,77,0.00,,---,0.00,VWS V14.01,2013-02-12 16:15:00,
2013-02-12 10:20:00,31.3,24.9,30.09,WSW,243,4.0,8.0,77,0.00,,---,0.00,VWS V14.01,2013-02-12 16:20:00,
2013-02-12 10:25:00,31.2,24.5,30.10,WNW,283,6.0,9.0,76,0.00,,---,0.00,VWS V14.01,2013-02-12 16:25:00,
2013-02-12 10:30:00,31.2,24.5,30.10,WNW,297,3.0,7.0,76,0.00,,---,0.00,VWS V14.01,2013-02-12 16:30:00,
2013-02-12 10:35:00,31.4,24.7,30.10,WNW,289,3.0,7.0,76,0.00,,---,0.00,VWS V14.01,2013-02-12 16:35:00,
2013-02-12 10:40:00,31.6,24.6,30.09,WSW,238,2.0,7.0,75,0.00,,---,0.00,VWS V14.01,2013-02-12 16:40:00,
2013-02-12 10:45:00,31.8,24.8,30.10,WSW,243,6.0,8.0,75,0.00,,---,0.00,VWS V14.01,2013-02-12 16:45:00,
2013-02-12 10:50:00,31.7,24.7,30.10,West,262,2.0,8.0,75,0.00,,---,0.00,VWS V14.01,2013-02-12 16:50:00,
2013-02-12 10:55:00,31.7,25.0,30.10,SW,233,2.0,8.0,76,0.00,,---,0.00,VWS V14.01,2013-02-12 16:55:00,
2013-02-12 11:00:00,31.8,24.8,30.11,West,274,2.0,6.0,75,0.00,,---,0.00,VWS V14.01,2013-02-12 17:00:00,
2013-02-12 11:05:00,32.0,24.7,30.11,SSW,212,1.0,7.0,74,0.00,,---,0.00,VWS V14.01,2013-02-12 17:05:00,
2013-02-12 11:10:00,32.1,24.8,30.11,SW,217,3.0,7.0,74,0.00,,---,0.00,VWS V14.01,2013-02-12 17:10:00,
2013-02-12 11:15:00,32.3,25.0,30.11,West,273,2.0,7.0,74,0.00,,---,0.00,VWS V14.01,2013-02-12 17:15:00,
2013-02-12 11:20:00,32.4,25.0,30.11,SW,231,5.0,8.0,74,0.00,,---,0.00,VWS V14.01,2013-02-12 17:20:00,
2013-02-12 11:25:00,32.6,24.9,30.11,SW,228,4.0,9.0,73,0.00,,---,0.00,VWS V14.01,2013-02-12 17:25:00,
2013-02-12 11:30:00,32.6,24.6,30.11,WNW,288,5.0,8.0,72,0.00,,---,0.00,VWS V14.01,2013-02-12 17:30:00,
2013-02-12 11:35:00,32.6,24.9,30.10,SSW,205,5.0,9.0,73,0.00,,---,0.00,VWS V14.01,2013-02-12 17:35:00,
2013-02-12 11:40:00,32.9,25.2,30.10,SSW,211,6.0,9.0,73,0.00,,---,0.00,VWS V14.01,2013-02-12 17:40:00,
2013-02-12 11:45:00,33.1,25.4,30.09,SW,228,1.0,9.0,73,0.00,,---,0.00,VWS V14.01,2013-02-12 17:45:00,
2013-02-12 11:50:00,33.1,25.4,30.08,WNW,297,5.0,9.0,73,0.00,,---,0.00,VWS V14.01,2013-02-12 17:50:00,
2013-02-12 11:55:00,33.3,25.3,30.08,SSE,165,4.0,9.0,72,0.00,,---,0.00,VWS V14.01,2013-02-12 17:55:00,
2013-02-12 12:00:00,33.5,25.5,30.07,SW,228,1.0,5.0,72,0.00,,---,0.00,VWS V14.01,2013-02-12 18:00:00,
2013-02-12 12:05:00,33.7,25.6,30.06,WSW,257,1.0,5.0,72,0.00,,---,0.00,VWS V14.01,2013-02-12 18:05:00,
2013-02-12 12:10:00,33.8,25.4,30.05,SW,228,5.0,7.0,71,0.00,,---,0.00,VWS V14.01,2013-02-12 18:10:00,
2013-02-12 12:15:00,33.7,25.6,30.05,West,276,3.0,7.0,72,0.00,,---,0.00,VWS V14.01,2013-02-12 18:15:00,
2013-02-12 12:20:00,33.7,25.6,30.04,SW,228,4.0,8.0,72,0.00,,---,0.00,VWS V14.01,2013-02-12 18:20:00,
2013-02-12 12:25:00,33.7,25.6,30.03,WNW,301,6.0,8.0,72,0.00,,---,0.00,VWS V14.01,2013-02-12 18:25:00,
2013-02-12 12:30:00,33.3,25.3,30.03,West,278,2.0,14.0,72,0.00,,---,0.00,VWS V14.01,2013-02-12 18:30:00,
2013-02-12 12:35:00,33.2,25.5,30.03,West,262,3.0,14.0,73,0.00,,---,0.00,VWS V14.01,2013-02-12 18:35:00,
2013-02-12 12:40:00,33.2,25.5,30.02,WSW,256,3.0,14.0,73,0.00,,---,0.00,VWS V14.01,2013-02-12 18:40:00,
2013-02-12 12:45:00,33.3,25.6,30.02,WNW,297,2.0,14.0,73,0.00,,---,0.00,VWS V14.01,2013-02-12 18:45:00,
2013-02-12 12:50:00,33.8,25.4,30.02,West,269,4.0,14.0,71,0.00,,---,0.00,VWS V14.01,2013-02-12 18:50:00,
2013-02-12 12:55:00,34.3,25.5,30.02,WSW,256,3.0,14.0,70,0.00,,---,0.00,VWS V14.01,2013-02-12 18:55:00,
2013-02-12 13:00:00,35.0,25.5,30.02,WSW,243,5.0,12.0,68,0.00,,---,0.00,VWS V14.01,2013-02-12 19:00:00,
2013-02-12 13:05:00,34.6,25.1,30.02,West,266,4.0,12.0,68,0.00,,---,0.00,VWS V14.01,2013-02-12 19:05:00,
2013-02-12 13:10:00,34.1,24.7,30.01,West,280,2.0,12.0,68,0.00,,---,0.00,VWS V14.01,2013-02-12 19:10:00,
2013-02-12 13:15:00,34.1,25.0,30.01,West,266,5.0,12.0,69,0.00,,---,0.00,VWS V14.01,2013-02-12 19:15:00,
2013-02-12 13:20:00,33.8,25.1,30.01,SW,219,5.0,12.0,70,0.00,,---,0.00,VWS V14.01,2013-02-12 19:20:00,
2013-02-12 13:25:00,33.9,25.2,30.02,SW,236,2.0,12.0,70,0.00,,---,0.00,VWS V14.01,2013-02-12 19:25:00,
2013-02-12 13:30:00,34.3,25.2,30.02,WSW,244,2.0,7.0,69,0.00,,---,0.00,VWS V14.01,2013-02-12 19:30:00,
2013-02-12 13:35:00,34.7,25.2,30.02,WSW,256,4.0,10.0,68,0.00,,---,0.00,VWS V14.01,2013-02-12 19:35:00,
2013-02-12 13:40:00,34.6,25.1,30.02,West,274,3.0,10.0,68,0.00,,---,0.00,VWS V14.01,2013-02-12 19:40:00,
2013-02-12 13:45:00,34.4,25.3,30.02,WSW,238,4.0,10.0,69,0.00,,---,0.00,VWS V14.01,2013-02-12 19:45:00,
2013-02-12 13:50:00,34.0,24.9,30.02,WNW,299,4.0,12.0,69,0.00,,---,0.00,VWS V14.01,2013-02-12 19:50:00,
2013-02-12 13:55:00,33.8,25.1,30.02,WNW,293,6.0,12.0,70,0.00,,---,0.00,VWS V14.01,2013-02-12 19:55:00,
2013-02-12 14:00:00,33.8,25.1,30.02,WSW,240,5.0,7.0,70,0.00,,---,0.00,VWS V14.01,2013-02-12 20:00:00,
2013-02-12 14:05:00,34.1,25.4,30.02,WNW,284,6.0,10.0,70,0.00,,---,0.00,VWS V14.01,2013-02-12 20:05:00,
2013-02-12 14:10:00,34.0,25.3,30.02,West,281,6.0,10.0,70,0.00,,---,0.00,VWS V14.01,2013-02-12 20:10:00,
2013-02-12 14:15:00,34.3,25.9,30.02,West,276,3.0,10.0,71,0.00,,---,0.00,VWS V14.01,2013-02-12 20:15:00,
2013-02-12 14:20:00,34.5,25.4,30.02,WSW,242,2.0,10.0,69,0.00,,---,0.00,VWS V14.01,2013-02-12 20:20:00,
2013-02-12 14:25:00,34.7,25.9,30.03,SW,226,2.0,10.0,70,0.00,,---,0.00,VWS V14.01,2013-02-12 20:25:00,
2013-02-12 14:30:00,34.8,25.7,30.03,West,260,3.0,7.0,69,0.00,,---,0.00,VWS V14.01,2013-02-12 20:30:00,
2013-02-12 14:35:00,34.9,26.1,30.02,WNW,285,4.0,9.0,70,0.00,,---,0.00,VWS V14.01,2013-02-12 20:35:00,
2013-02-12 14:40:00,35.0,25.9,30.03,WSW,246,5.0,9.0,69,0.00,,---,0.00,VWS V14.01,2013-02-12 20:40:00,
2013-02-12 14:45:00,34.9,26.1,30.03,WSW,252,5.0,11.0,70,0.00,,---,0.00,VWS V14.01,2013-02-12 20:45:00,
2013-02-12 14:50:00,34.8,26.0,30.03,West,274,7.0,11.0,70,0.00,,---,0.00,VWS V14.01,2013-02-12 20:50:00,
2013-02-12 14:55:00,34.7,26.3,30.03,SW,231,4.0,11.0,71,0.00,,---,0.00,VWS V14.01,2013-02-12 20:55:00,
2013-02-12 15:00:00,34.5,26.1,30.03,SSW,195,5.0,9.0,71,0.00,,---,0.00,VWS V14.01,2013-02-12 21:00:00,
2013-02-12 15:05:00,34.7,25.9,30.03,SW,226,3.0,9.0,70,0.00,,---,0.00,VWS V14.01,2013-02-12 21:05:00,
2013-02-12 15:10:00,34.9,25.8,30.03,WNW,283,4.0,10.0,69,0.00,,---,0.00,VWS V14.01,2013-02-12 21:10:00,
2013-02-12 15:15:00,34.7,25.9,30.02,West,281,5.0,10.0,70,0.00,,---,0.00,VWS V14.01,2013-02-12 21:15:00,
2013-02-12 15:20:00,34.8,26.0,30.02,West,262,4.0,10.0,70,0.00,,---,0.00,VWS V14.01,2013-02-12 21:20:00,
2013-02-12 15:25:00,34.7,25.9,30.02,WSW,257,3.0,10.0,70,0.00,,---,0.00,VWS V14.01,2013-02-12 21:25:00,
2013-02-12 15:30:00,34.6,25.8,30.03,WSW,257,2.0,6.0,70,0.00,,---,0.00,VWS V14.01,2013-02-12 21:30:00,
2013-02-12 15:35:00,34.6,26.2,30.03,West,277,2.0,6.0,71,0.00,,---,0.00,VWS V14.01,2013-02-12 21:35:00,
2013-02-12 15:40:00,34.6,25.8,30.03,WNW,284,2.0,8.0,70,0.00,,---,0.00,VWS V14.01,2013-02-12 21:40:00,
2013-02-12 15:45:00,34.5,25.7,30.03,West,260,1.0,9.0,70,0.00,,---,0.00,VWS V14.01,2013-02-12 21:45:00,
2013-02-12 15:50:00,34.5,26.1,30.03,SW,226,3.0,9.0,71,0.00,,---,0.00,VWS V14.01,2013-02-12 21:50:00,
2013-02-12 15:55:00,34.6,26.2,30.02,WSW,243,2.0,9.0,71,0.00,,---,0.00,VWS V14.01,2013-02-12 21:55:00,
2013-02-12 16:00:00,34.6,25.8,30.02,NW,304,1.0,11.0,70,0.00,,---,0.00,VWS V14.01,2013-02-12 22:00:00,
2013-02-12 16:05:00,34.6,26.2,30.02,West,264,2.0,11.0,71,0.00,,---,0.00,VWS V14.01,2013-02-12 22:05:00,
2013-02-12 16:10:00,34.6,26.2,30.02,SW,225,3.0,11.0,71,0.00,,---,0.00,VWS V14.01,2013-02-12 22:10:00,
2013-02-12 16:15:00,34.7,26.3,30.01,SW,231,3.0,11.0,71,0.00,,---,0.00,VWS V14.01,2013-02-12 22:15:00,
2013-02-12 16:20:00,34.6,26.2,30.01,WNW,293,1.0,11.0,71,0.00,,---,0.00,VWS V14.01,2013-02-12 22:20:00,
2013-02-12 16:25:00,34.6,26.2,30.01,SSW,204,2.0,11.0,71,0.00,,---,0.00,VWS V14.01,2013-02-12 22:25:00,
2013-02-12 16:30:00,34.6,26.5,30.01,SW,225,2.0,3.0,72,0.00,,---,0.00,VWS V14.01,2013-02-12 22:30:00,
2013-02-12 16:35:00,34.6,26.2,30.01,WNW,284,2.0,4.0,71,0.00,,---,0.00,VWS V14.01,2013-02-12 22:35:00,
2013-02-12 16:40:00,34.6,26.5,30.01,WSW,242,0.0,7.0,72,0.00,,---,0.00,VWS V14.01,2013-02-12 22:40:00,
2013-02-12 16:45:00,34.5,26.4,30.01,WSW,253,1.0,7.0,72,0.00,,---,0.00,VWS V14.01,2013-02-12 22:45:00,
2013-02-12 16:50:00,34.5,26.4,30.01,WSW,243,1.0,7.0,72,0.00,,---,0.00,VWS V14.01,2013-02-12 22:50:00,
2013-02-12 16:55:00,34.5,26.4,30.01,WSW,245,1.0,7.0,72,0.00,,---,0.00,VWS V14.01,2013-02-12 22:55:00,
2013-02-12 17:00:00,34.5,26.8,30.01,SW,232,2.0,4.0,73,0.00,,---,0.00,VWS V14.01,2013-02-12 23:00:00,
2013-02-12 17:05:00,34.4,26.7,30.02,SW,222,3.0,4.0,73,0.00,,---,0.00,VWS V14.01,2013-02-12 23:05:00,
2013-02-12 17:10:00,34.4,26.7,30.01,West,276,0.0,5.0,73,0.00,,---,0.00,VWS V14.01,2013-02-12 23:10:00,
2013-02-12 17:15:00,34.3,26.9,30.01,WSW,243,0.0,5.0,74,0.00,,---,0.00,VWS V14.01,2013-02-12 23:15:00,
2013-02-12 17:20:00,34.1,26.7,30.01,WSW,238,0.0,5.0,74,0.00,,---,0.00,VWS V14.01,2013-02-12 23:20:00,
2013-02-12 17:25:00,33.9,26.5,30.00,SW,231,0.0,5.0,74,0.00,,---,0.00,VWS V14.01,2013-02-12 23:25:00,
2013-02-12 17:30:00,33.7,26.6,30.00,WSW,245,1.0,2.0,75,0.00,,---,0.00,VWS V14.01,2013-02-12 23:30:00,
2013-02-12 17:35:00,33.5,26.4,30.00,West,278,1.0,2.0,75,0.00,,---,0.00,VWS V14.01,2013-02-12 23:35:00,
2013-02-12 17:40:00,33.5,26.8,30.00,SW,233,0.0,2.0,76,0.00,,---,0.00,VWS V14.01,2013-02-12 23:40:00,
2013-02-12 17:45:00,33.4,26.7,30.00,SW,233,0.0,2.0,76,0.00,,---,0.00,VWS V14.01,2013-02-12 23:45:00,
2013-02-12 17:50:00,33.3,26.9,30.00,SW,233,0.0,2.0,77,0.00,,---,0.00,VWS V14.01,2013-02-12 23:50:00,
2013-02-12 17:55:00,33.1,26.7,30.00,SW,233,0.0,2.0,77,0.00,,---,0.00,VWS V14.01,2013-02-12 23:55:00,
2013-02-12 18:00:00,33.1,26.7,30.00,SW,233,0.0,0.0,77,0.00,,---,0.00,VWS V14.01,2013-02-13 00:00:00,
2013-02-12 18:05:00,33.0,26.6,30.00,SW,233,0.0,0.0,77,0.00,,---,0.00,VWS V14.01,2013-02-13 00:05:00,
2013-02-12 18:10:00,32.7,26.3,30.00,SW,233,0.0,0.0,77,0.00,,---,0.00,VWS V14.01,2013-02-13 00:10:00,
2013-02-12 18:15:00,32.4,26.3,30.00,SW,233,0.0,0.0,78,0.00,,---,0.00,VWS V14.01,2013-02-13 00:15:00,
2013-02-12 18:20:00,32.1,26.3,30.00,SW,233,0.0,0.0,79,0.00,,---,0.00,VWS V14.01,2013-02-13 00:20:00,
2013-02-12 18:25:00,32.0,26.5,29.99,West,270,0.0,1.0,80,0.00,,---,0.00,VWS V14.01,2013-02-13 00:25:00,
2013-02-12 18:30:00,32.1,26.6,29.99,West,270,0.0,0.0,80,0.00,,---,0.00,VWS V14.01,2013-02-13 00:30:00,
2013-02-12 18:35:00,32.3,27.1,29.99,West,270,1.0,1.0,81,0.00,,---,0.00,VWS V14.01,2013-02-13 00:35:00,
2013-02-12 18:40:00,32.7,27.2,30.00,NW,311,0.0,2.0,80,0.00,,---,0.00,VWS V14.01,2013-02-13 00:40:00,
2013-02-12 18:45:00,32.6,27.1,30.00,West,269,1.0,2.0,80,0.00,,---,0.00,VWS V14.01,2013-02-13 00:45:00,
2013-02-12 18:50:00,32.8,27.0,30.00,WNW,297,1.0,3.0,79,0.00,,---,0.00,VWS V14.01,2013-02-13 00:50:00,
2013-02-12 18:55:00,32.9,27.1,30.00,WNW,294,0.0,4.0,79,0.00,,---,0.00,VWS V14.01,2013-02-13 00:55:00,
2013-02-12 19:00:00,32.8,27.0,29.99,WNW,295,1.0,1.0,79,0.00,,---,0.00,VWS V14.01,2013-02-13 01:00:00,
2013-02-12 19:05:00,32.7,26.9,29.99,NW,304,0.0,4.0,79,0.00,,---,0.00,VWS V14.01,2013-02-13 01:05:00,
2013-02-12 19:10:00,32.6,26.5,30.00,West,278,0.0,4.0,78,0.00,,---,0.00,VWS V14.01,2013-02-13 01:10:00,
2013-02-12 19:15:00,32.5,26.4,30.00,WNW,284,0.0,4.0,78,0.00,,---,0.00,VWS V14.01,2013-02-13 01:15:00,
2013-02-12 19:20:00,32.5,26.4,30.00,WNW,283,0.0,4.0,78,0.00,,---,0.00,VWS V14.01,2013-02-13 01:20:00,
2013-02-12 19:25:00,32.4,26.3,29.99,West,276,2.0,4.0,78,0.00,,---,0.00,VWS V14.01,2013-02-13 01:25:00,
2013-02-12 19:30:00,32.3,26.5,29.99,WNW,284,1.0,1.0,79,0.00,,---,0.00,VWS V14.01,2013-02-13 01:30:00,
2013-02-12 19:35:00,32.2,26.1,29.99,WNW,285,2.0,4.0,78,0.00,,---,0.00,VWS V14.01,2013-02-13 01:35:00,
2013-02-12 19:40:00,32.1,26.3,29.99,West,279,0.0,4.0,79,0.00,,---,0.00,VWS V14.01,2013-02-13 01:40:00,
2013-02-12 19:45:00,32.1,26.3,29.99,West,281,0.0,4.0,79,0.00,,---,0.00,VWS V14.01,2013-02-13 01:45:00,
2013-02-12 19:50:00,32.0,26.2,29.98,WNW,288,0.0,4.0,79,0.00,,---,0.00,VWS V14.01,2013-02-13 01:50:00,
2013-02-12 19:55:00,31.9,26.1,29.99,North,349,2.0,4.0,79,0.00,,---,0.00,VWS V14.01,2013-02-13 01:55:00,
2013-02-12 20:00:00,31.8,26.0,29.98,West,281,0.0,0.0,79,0.00,,---,0.00,VWS V14.01,2013-02-13 02:00:00,
2013-02-12 20:04:00,31.7,26.2,29.98,North,352,0.0,0.0,80,0.00,,---,0.00,VWS V14.01,2013-02-13 02:04:00,
2013-02-12 20:09:00,31.7,26.2,29.99,West,269,1.0,1.0,80,0.00,,---,0.00,VWS V14.01,2013-02-13 02:09:00,
2013-02-12 20:14:00,31.6,26.1,29.98,WNW,287,1.0,3.0,80,0.00,,---,0.00,VWS V14.01,2013-02-13 02:14:00,
2013-02-12 20:19:00,31.6,26.1,29.98,West,279,0.0,3.0,80,0.00,,---,0.00,VWS V14.01,2013-02-13 02:19:00,
2013-02-12 20:24:00,31.5,26.0,29.98,NNW,347,3.0,4.0,80,0.00,,---,0.00,VWS V14.01,2013-02-13 02:24:00,
2013-02-12 20:29:00,31.5,26.0,29.98,West,281,2.0,2.0,80,0.00,,---,0.00,VWS V14.01,2013-02-13 02:29:00,
2013-02-12 20:30:00,31.5,26.0,29.98,West,280,0.0,4.0,80,0.00,,---,0.00,VWS V14.01,2013-02-13 02:30:00,
2013-02-12 20:34:00,31.4,26.0,29.97,WNW,299,1.0,3.0,80,0.00,,---,0.00,VWS V14.01,2013-02-13 02:34:00,
2013-02-12 20:39:00,31.3,25.9,29.98,NNW,342,1.0,3.0,80,0.00,,---,0.00,VWS V14.01,2013-02-13 02:39:00,
2013-02-12 20:44:00,31.2,25.8,29.97,WNW,297,0.0,3.0,80,0.00,,---,0.00,VWS V14.01,2013-02-13 02:44:00,
2013-02-12 20:49:00,31.0,25.6,29.97,West,281,1.0,3.0,80,0.00,,---,0.00,VWS V14.01,2013-02-13 02:49:00,
2013-02-12 20:54:00,30.9,25.8,29.97,WNW,299,1.0,4.0,81,0.00,,---,0.00,VWS V14.01,2013-02-13 02:54:00,
2013-02-12 20:59:00,30.9,25.5,29.97,West,279,1.0,2.0,80,0.00,,---,0.00,VWS V14.01,2013-02-13 02:59:00,
2013-02-12 21:00:00,30.9,25.5,29.97,WNW,284,2.0,4.0,80,0.00,,---,0.00,VWS V14.01,2013-02-13 03:00:00,
2013-02-12 21:04:00,30.9,25.5,29.97,West,270,1.0,5.0,80,0.00,,---,0.00,VWS V14.01,2013-02-13 03:04:00,
2013-02-12 21:09:00,30.8,25.4,29.97,West,267,1.0,5.0,80,0.00,,---,0.00,VWS V14.01,2013-02-13 03:09:00,
2013-02-12 21:14:00,30.6,25.2,29.97,West,265,2.0,5.0,80,0.00,,---,0.00,VWS V14.01,2013-02-13 03:14:00,
2013-02-12 21:19:00,30.4,25.0,29.97,West,275,0.0,5.0,80,0.00,,---,0.00,VWS V14.01,2013-02-13 03:19:00,
2013-02-12 21:24:00,30.2,24.8,29.97,West,267,1.0,5.0,80,0.00,,---,0.00,VWS V14.01,2013-02-13 03:24:00,
2013-02-12 21:29:00,30.2,24.8,29.97,NW,309,1.0,2.0,80,0.00,,---,0.00,VWS V14.01,2013-02-13 03:29:00,
2013-02-12 21:30:00,30.2,24.8,29.97,WNW,290,0.0,5.0,80,0.00,,---,0.00,VWS V14.01,2013-02-13 03:30:00,
2013-02-12 21:34:00,29.9,24.5,29.97,West,267,0.0,2.0,80,0.00,,---,0.00,VWS V14.01,2013-02-13 03:34:00,
2013-02-12 21:39:00,29.6,24.5,29.97,West,276,0.0,2.0,81,0.00,,---,0.00,VWS V14.01,2013-02-13 03:39:00,
2013-02-12 21:44:00,29.3,24.2,29.97,West,275,0.0,2.0,81,0.00,,---,0.00,VWS V14.01,2013-02-13 03:44:00,
2013-02-12 21:49:00,29.0,24.2,29.97,WNW,283,1.0,2.0,82,0.00,,---,0.00,VWS V14.01,2013-02-13 03:49:00,
2013-02-12 21:54:00,29.0,24.2,29.97,NW,311,1.0,2.0,82,0.00,,---,0.00,VWS V14.01,2013-02-13 03:54:00,
2013-02-12 21:59:00,29.1,24.3,29.97,West,281,1.0,2.0,82,0.00,,---,0.00,VWS V14.01,2013-02-13 03:59:00,
2013-02-12 22:00:00,29.0,24.2,29.97,West,280,1.0,3.0,82,0.00,,---,0.00,VWS V14.01,2013-02-13 04:00:00,
2013-02-12 22:04:00,29.1,24.3,29.96,West,273,3.0,4.0,82,0.00,,---,0.00,VWS V14.01,2013-02-13 04:04:00,
2013-02-12 22:09:00,29.4,24.6,29.96,WNW,283,2.0,6.0,82,0.00,,---,0.00,VWS V14.01,2013-02-13 04:09:00,
2013-02-12 22:14:00,29.6,24.2,29.97,NW,311,3.0,6.0,80,0.00,,---,0.00,VWS V14.01,2013-02-13 04:14:00,
2013-02-12 22:19:00,29.8,24.4,29.97,West,275,3.0,6.0,80,0.00,,---,0.00,VWS V14.01,2013-02-13 04:19:00,
2013-02-12 22:24:00,29.8,24.4,29.97,WSW,257,1.0,6.0,80,0.00,,---,0.00,VWS V14.01,2013-02-13 04:24:00,
2013-02-12 22:29:00,29.8,24.1,29.97,WSW,255,0.0,1.0,79,0.00,,---,0.00,VWS V14.01,2013-02-13 04:29:00,
2013-02-12 22:30:00,29.8,24.1,29.97,West,262,0.0,6.0,79,0.00,,---,0.00,VWS V14.01,2013-02-13 04:30:00,
2013-02-12 22:34:00,29.9,24.5,29.97,WNW,287,3.0,5.0,80,0.00,,---,0.00,VWS V14.01,2013-02-13 04:34:00,
2013-02-12 22:39:00,30.0,24.3,29.97,West,277,5.0,8.0,79,0.00,,---,0.00,VWS V14.01,2013-02-13 04:39:00,
2013-02-12 22:44:00,29.9,23.9,29.96,WNW,289,3.0,8.0,78,0.00,,---,0.00,VWS V14.01,2013-02-13 04:44:00,
2013-02-12 22:49:00,29.8,23.8,29.97,West,279,1.0,8.0,78,0.00,,---,0.00,VWS V14.01,2013-02-13 04:49:00,
2013-02-12 22:54:00,29.7,23.7,29.96,West,270,1.0,8.0,78,0.00,,---,0.00,VWS V14.01,2013-02-13 04:54:00,
2013-02-12 22:59:00,29.6,23.9,29.96,WNW,287,2.0,2.0,79,0.00,,---,0.00,VWS V14.01,2013-02-13 04:59:00,
2013-02-12 23:00:00,29.5,23.8,29.96,West,261,1.0,2.0,79,0.00,,---,0.00,VWS V14.01,2013-02-13 05:00:00,
2013-02-12 23:05:00,29.4,23.7,29.96,West,276,1.0,4.0,79,0.00,,---,0.00,VWS V14.01,2013-02-13 05:05:00,
2013-02-12 23:10:00,29.3,23.6,29.96,West,269,1.0,4.0,79,0.00,,---,0.00,VWS V14.01,2013-02-13 05:10:00,
2013-02-12 23:15:00,29.2,23.5,29.96,WNW,287,0.0,4.0,79,0.00,,---,0.00,VWS V14.01,2013-02-13 05:15:00,
2013-02-12 23:20:00,29.1,23.7,29.96,NW,309,0.0,4.0,80,0.00,,---,0.00,VWS V14.01,2013-02-13 05:20:00,
2013-02-12 23:25:00,29.0,23.6,29.96,WNW,297,1.0,4.0,80,0.00,,---,0.00,VWS V14.01,2013-02-13 05:25:00,
2013-02-12 23:30:00,29.0,23.6,29.96,West,281,0.0,2.0,80,0.00,,---,0.00,VWS V14.01,2013-02-13 05:30:00,
2013-02-12 23:35:00,29.2,23.8,29.96,NW,323,2.0,5.0,80,0.00,,---,0.00,VWS V14.01,2013-02-13 05:35:00,
2013-02-12 23:40:00,29.4,24.0,29.96,WNW,290,1.0,7.0,80,0.00,,---,0.00,VWS V14.01,2013-02-13 05:40:00,
2013-02-12 23:45:00,29.4,24.0,29.97,WNW,288,0.0,7.0,80,0.00,,---,0.00,VWS V14.01,2013-02-13 05:45:00,
2013-02-12 23:50:00,29.3,23.9,29.96,West,280,4.0,7.0,80,0.00,,---,0.00,VWS V14.01,2013-02-13 05:50:00,
2013-02-12 23:55:00,29.2,23.8,29.96,West,270,2.0,7.0,80,0.00,,---,0.00,VWS V14.01,2013-02-13 05:55:00,